Weather in Stockton

United States     37°55′16″N   121°15′41″W
temp.,
°C
wind,
m/s
gust,
m/s
humid.,
%
clouds,
%
prec.,
mm/h
press.,
hPa
HPBL,
m
25 may, wed
wed2523:00+25wsw24235 0.0 1007108
02:00+23ne11255 0.0 100711
05:00+21w11305 0.0 100823
08:00+25sw123049 0.0 1009264
11:00+33w121999 0.0 1008795
14:00+38nw1213100 0.0 10071385
17:00+39nw4312100 0.0 10052683
20:00+31wnw482131 0.0 1006368
26 may, thu
thu2623:00+23nne233511 0.0 1008128
02:00+21nne22382 0.0 100879
05:00+18nnw22515 0.0 100880
08:00+21nnw22465 0.0 1010310
11:00+28wnw232520 0.0 1010907
14:00+33wnw5517100 0.0 10091581
17:00+31nw5520100 0.0 10091099
20:00+23nw353689 0.0 1010338
27 may, fri
fri2723:00+18nw24575 0.0 1012202
02:00+16nne226794 0.0 1013160
05:00+15nnw127293 0.0 1014126
08:00+17nnw1260100 0.0 1015316
11:00+25wnw2335100 0.0 1014850
14:00+31wnw4519100 0.0 10132072
17:00+29w7720100 0.0 10121687
20:00+23w593382 0.0 1012715
28 may, sat
sat2823:00+18wsw37539 0.0 1014300
02:00+17wsw366860 0.0 1013249
05:00+16wsw477298 0.0 1013282
08:00+17wsw3467100 0.0 1014398
11:00+19wsw2353100 0.0 1013811
14:00+23w4440100 0.0 10121718
17:00+22w554525 0.0 10111491
20:00+19wsw56560 0.0 1011791
29 may, sun
sun2923:00+13wsw47680 0.0 1012253
02:00+11w35750 0.0 1012265
05:00+10wnw38770 0.0 1012268
08:00+13nw47550 0.0 1013580
11:00+20nw67240 0.0 10121553
14:00+25wnw56150 0.0 10102490
17:00+25w66164 0.0 10072843
20:00+18wsw812380 0.0 1008863